GFSFLT1_con_sbcape_054.txt.gz
CAPE
0 0 0 0 0 0 1 2 1 1 0 0 0 0 0 0 0 8 23 30 15 14 2 0 0 0 0 0 0 0 0 0
0 0 0 0 0 3 1 2 3 0 0 0 0 0 0 0 1 28 50 64 73 49 37 17 0 0 0 0 0 0 0 0
0 0 0 0 1 1 2 2 1 0 0 0 0 0 0 0 0 6 10 24 68 76 39 33 0 0 0 0 0 0 0 0
0 0 0 0 0 0 2 0 0 0 0 0 0 0 0 0 0 0 0 1 1 39 34 15 0 0 0 0 0 0 0 0
0 0 0 0 0 0 0 0 0 0 0 0 0 0 0 0 0 0 0 0 0 1 20 13 0 0 0 0 0 0 0 0
0 0 0 0 0 0 0 0 0 0 0 0 0 0 0 0 0 0 0 0 0 0 0 0 0 0 0 0 0 0 0 0
0 0 0 0 0 0 0 0 0 0 0 0 0 0 0 0 0 0 0 0 0 0 0 0 0 0 0 0 0 0 0 0
0 0 0 0 0 0 0 0 0 0 0 0 0 0 0 0 0 0 0 0 0 0 0 0 0 0 0 0 0 0 0 0
0 0 0 0 0 0 0 0 0 0 0 0 0 0 0 0 0 0 0 0 0 0 0 0 0 0 0 0 0 0 0 0
0 0 0 0 0 0 0 0 0 0 0 0 0 0 0 0 0 0 0 0 0 0 0 0 0 0 0 1 0 0 0 0
0 0 0 0 0 0 0 0 0 0 0 0 0 0 0 0 0 0 0 0 0 0 0 0 0 1 5 2 0 0 0 0
0 0 0 0 0 0 0 0 0 0 0 0 0 0 0 0 0 0 0 0 0 0 0 0 0 0 0 0 0 0 0 0
0 0 0 0 0 0 0 0 0 0 0 0 0 0 0 0 0 0 0 0 0 0 0 0 0 0 0 0 0 0 0 0
0 0 0 0 0 0 0 0 0 0 0 0 0 0 0 0 0 0 0 0 0 0 0 0 0 0 0 0 0 0 0 0
0 0 0 0 0 0 0 0 0 0 0 0 0 0 0 0 0 0 0 0 0 0 0 0 0 0 0 0 0 0 0 0
0 0 0 0 0 0 0 0 0 0 0 0 0 0 0 0 0 0 0 0 0 0 0 0 0 0 0 0 0 0 0 0
0 0 0 0 0 0 0 0 0 0 0 0 0 0 0 0 0 0 0 0 0 0 0 0 0 0 0 0 0 0 0 2
0 0 0 0 0 0 0 0 0 0 0 0 0 0 0 0 0 0 3 1 1 0 0 0 1 3 1 0 0 0 0 0
0 0 0 0 0 0 0 0 0 0 0 0 0 0 0 0 1 1 0 0 0 0 0 0 1 0 0 0 0 0 0 0

GFSFLT1_con_sbcape_057.txt.gz
CAPE
0 4 4 2 1 2 1 3 2 8 4 5 19 26 14 2 2 30 38 18 39 65 45 35 11 26 0 0 0 0 0 0
0 1 6 6 3 3 2 3 2 6 6 15 15 5 2 31 29 37 31 32 52 59 92 52 25 23 30 9 0 0 0 0
0 2 5 8 4 1 5 6 4 4 5 13 12 0 0 28 63 61 56 69 72 132 107 108 74 70 41 14 0 0 0 0
1 2 5 8 6 14 5 7 3 6 12 6 1 1 0 0 0 28 62 119 165 135 148 168 135 87 100 42 0 0 0 0
0 1 2 4 6 13 21 7 3 3 1 2 0 1 0 0 0 0 2 34 58 132 111 83 81 51 71 29 0 0 0 0
0 1 1 1 6 5 14 6 2 0 2 5 4 0 0 0 0 0 0 7 21 23 35 72 121 103 119 34 1 0 0 0
0 0 0 0 2 7 11 9 1 0 0 0 0 0 0 0 0 0 0 0 0 5 0 5 60 174 166 149 101 11 0 0
0 0 0 1 1 4 7 6 4 0 0 0 0 0 0 0 0 0 0 0 0 0 13 15 66 64 38 93 84 52 26 9
0 0 0 0 1 2 3 3 2 1 0 0 0 0 0 0 0 0 0 0 0 2 0 6 20 18 15 32 88 66 17 4
0 0 0 0 0 0 0 0 1 1 0 0 0 0 0 0 0 0 0 0 0 0 0 3 5 0 3 8 80 40 9 2
0 0 0 0 0 0 0 0 0 0 1 0 0 0 0 0 0 0 0 0 0 0 0 0 0 0 0 6 59 35 5 2
0 0 0 0 0 0 0 0 0 0 0 0 0 0 0 0 0 0 0 0 0 0 0 0 0 0 2 38 42 13 0 0
0 0 0 0 0 0 0 0 0 0 0 0 0 0 0 0 0 0 0 0 0 0 0 0 0 0 0 6 0 0 0 1
0 0 0 0 0 0 0 0 0 0 0 0 0 0 0 0 0 0 0 0 0 3 6 6 0 0 0 0 0 0 0 0
0 0 0 0 0 0 0 0 0 0 0 0 0 0 0 0 0 0 0 0 0 0 0 0 3 0 0 0 0 0 0 0
0 0 0 0 0 0 0 0 0 0 0 0 0 0 0 0 0 0 0 0 0 0 0 0 0 5 4 7 0 0 1 0
0 0 0 0 0 0 0 0 0 0 0 0 0 0 0 0 0 0 0 0 1 6 5 1 6 3 0 0 0 0 0 0
0 0 0 0 0 0 4 30 2 4 1 0 0 0 0 0 0 0 0 0 6 10 13 12 10 6 0 1 1 0 0 0
0 0 0 0 0 0 0 0 5 17 10 13 0 0 0 0 0 0 1 6 18 8 4 2 0 0 1 1 1 0 0 0

GFSFLT1_con_sbcape_060.txt.gz
CAPE
0 0 3 8 18 3 13 9 7 8 1 6 30 0 1 23 43 171 121 90 108 76 58 118 84 28 22 10 0 0 0 0
0 0 3 11 8 13 3 6 3 9 8 16 35 22 0 11 25 69 131 108 142 138 119 132 108 99 94 76 32 17 0 0
0 0 1 4 13 23 3 4 8 5 12 0 6 48 45 13 7 40 108 150 132 134 150 119 106 147 156 130 94 71 29 0
9 0 0 3 6 3 26 35 9 4 2 14 27 41 1 18 18 14 56 153 198 118 139 174 167 153 196 207 169 160 133 38
37 1 0 0 1 11 22 34 35 17 11 12 22 3 8 0 18 42 87 124 162 157 131 192 251 236 203 269 268 242 266 235
72 18 0 0 0 7 11 21 16 10 15 12 8 2 0 0 6 45 98 79 114 146 167 231 286 285 261 293 244 217 245 264
99 31 0 0 0 1 8 7 14 12 11 12 12 11 0 0 5 5 8 36 83 106 142 246 279 208 119 54 156 296 306 238
110 69 18 10 0 0 1 6 6 15 12 14 17 20 7 0 0 0 0 41 37 41 77 197 135 89 70 50 181 382 414 312
125 105 56 36 0 0 0 2 5 16 23 13 16 28 18 0 0 0 0 0 16 1 0 84 89 49 75 198 162 141 186 235
135 149 112 61 7 0 0 0 0 12 12 15 14 26 24 21 1 0 0 7 0 0 0 7 80 80 97 104 176 96 244 288
129 204 163 118 35 0 0 0 0 0 8 17 17 19 18 25 37 23 8 23 17 2 0 13 23 34 46 60 127 137 237 335
195 213 195 169 111 31 1 0 0 0 1 5 7 8 11 26 21 30 22 25 9 8 7 9 15 26 33 84 70 61 151 264
105 258 268 156 156 97 40 7 0 0 0 0 2 5 7 9 11 7 36 30 39 18 20 24 17 30 78 84 132 27 154 276
86 130 239 277 193 145 95 56 23 0 0 0 0 5 6 8 3 3 8 9 14 11 18 33 55 57 47 32 38 99 228 75
4 88 102 197 233 210 142 107 74 26 0 0 6 32 33 16 1 3 8 3 9 10 15 14 10 18 6 30 27 77 27 1
0 0 3 63 133 229 195 147 117 69 33 3 41 24 0 0 0 0 0 3 1 0 1 5 13 9 6 71 25 24 7 2
0 0 0 0 58 163 202 185 156 113 61 60 10 1 0 0 0 0 0 0 0 1 0 3 9 11 0 0 0 180 10 3
0 0 0 0 0 7 131 257 208 152 113 70 39 19 32 35 16 5 4 20 19 12 40 25 72 125 6 0 0 11 1 1
0 0 0 0 0 0 14 79 223 245 202 156 104 66 58 55 55 42 52 83 86 127 129 107 25 22 5 0 0 0 0 0

GFSFLT1_con_sbcape_063.txt.gz
CAPE
120 0 0 62 116 56 20 12 8 3 15 15 35 19 11 15 29 84 148 108 140 162 167 207 90 73 55 101 108 47 24 0
80 0 0 18 74 37 17 12 9 2 15 22 26 20 19 38 26 57 140 68 144 183 192 261 264 128 97 213 78 54 0 0
50 0 5 52 39 11 17 7 6 4 2 4 15 16 4 1 16 58 107 137 208 258 270 266 269 247 288 237 240 81 24 6
123 0 0 26 49 8 11 14 6 6 0 3 29 19 13 7 20 25 50 84 172 224 309 280 255 340 297 327 363 294 155 60
286 55 9 16 8 8 35 30 13 4 7 7 15 14 17 7 1 17 35 25 155 154 138 153 295 250 270 327 302 293 309 212
269 174 45 10 21 14 7 22 24 13 19 6 10 7 24 35 15 29 11 2 75 75 112 93 158 331 279 394 390 383 351 260
172 219 128 16 11 25 10 9 19 26 18 7 9 1 19 18 37 30 13 24 44 125 115 101 96 180 232 287 312 394 342 327
113 248 169 31 11 29 8 5 7 18 18 18 13 10 9 11 11 2 0 1 30 112 132 157 170 170 130 183 323 359 400 336
92 236 254 78 19 27 16 0 4 9 21 14 16 12 25 14 7 0 0 0 21 70 164 148 156 115 81 170 187 183 197 295
63 178 311 184 48 36 29 0 1 3 15 17 14 17 15 13 17 11 0 4 55 95 93 124 136 160 178 136 78 53 134 96
59 198 343 303 119 37 27 1 2 5 5 20 21 20 34 16 14 23 13 2 82 71 100 59 55 38 41 114 73 51 94 163
71 225 343 411 302 113 44 7 0 23 23 4 17 15 34 32 26 63 31 38 43 37 1 10 24 22 36 44 93 106 112 154
160 301 397 460 438 310 118 49 8 14 51 52 97 97 96 101 168 154 270 106 46 68 94 2 7 12 32 37 44 61 132 119
58 313 416 501 516 496 320 167 74 21 22 74 249 362 383 433 443 289 301 305 216 110 93 89 73 50 78 64 54 87 121 133
17 121 251 456 493 500 499 395 279 114 37 80 156 265 252 327 289 288 262 267 213 104 42 72 159 130 133 150 144 168 150 127
34 34 56 108 252 463 475 446 412 311 162 86 172 294 248 183 271 248 223 213 196 198 224 238 244 209 149 219 188 210 210 159
5 6 2 4 7 114 279 433 425 370 335 380 174 240 205 249 233 257 253 257 210 223 153 154 181 86 0 0 0 234 121 111
0 0 1 9 5 2 26 171 404 406 433 352 372 382 278 286 258 152 194 221 221 201 175 175 162 181 0 0 0 3 81 216
0 0 0 10 9 2 0 2 63 370 380 421 360 455 423 349 250 183 196 214 236 202 195 161 164 166 21 0 0 0 15 68

GFSFLT1_con_sbcape_066.txt.gz
CAPE
216 0 0 89 82 16 0 9 8 5 5 6 7 2 12 5 6 0 0 0 40 69 49 82 56 8 97 53 63 67 10 5
200 0 0 23 102 6 9 10 2 0 1 10 4 2 2 1 0 0 0 10 35 40 56 71 54 53 30 45 77 22 15 7
205 0 0 16 92 14 11 6 0 0 0 2 9 2 1 0 7 1 1 7 9 16 37 85 113 105 71 62 18 7 1 2
207 5 0 2 133 0 7 10 0 0 3 1 8 3 4 3 1 9 1 1 4 6 89 93 88 177 140 118 148 42 36 8
239 41 0 11 38 7 1 5 2 0 0 5 3 6 3 0 4 0 0 4 18 15 80 83 98 148 176 165 161 166 126 20
291 120 1 5 22 19 0 1 8 1 3 2 3 2 2 0 1 0 0 0 22 42 97 132 190 119 146 123 123 151 172 106
79 238 51 6 20 17 5 2 5 10 2 4 0 0 1 1 0 0 0 0 0 22 61 71 72 110 114 89 57 61 132 100
6 228 121 2 23 42 2 6 11 13 11 1 5 0 0 0 0 0 0 0 0 0 25 43 26 33 105 88 57 57 60 73
0 160 214 32 10 35 20 0 4 7 9 6 0 0 0 0 0 0 0 0 0 0 0 14 25 28 41 60 23 15 14 19
0 69 294 124 4 15 12 2 0 5 13 8 7 1 0 1 0 0 0 0 0 0 7 7 20 41 39 15 13 3 7 15
5 26 378 272 22 14 41 0 0 0 8 8 9 10 8 2 0 0 0 0 0 0 1 18 23 32 34 22 19 1 8 12
45 67 364 415 202 31 42 15 0 3 0 5 7 9 8 9 1 0 0 0 0 0 0 7 19 37 31 8 3 1 7 1
59 216 314 469 399 133 47 22 3 7 11 6 3 6 11 15 11 7 4 1 0 0 0 5 1 0 7 10 9 13 12 2
65 330 334 444 470 425 203 92 21 9 38 17 10 1 4 12 42 7 5 5 0 0 0 4 0 0 0 0 0 0 0 0
2 40 331 464 502 515 520 341 146 53 9 54 44 24 10 0 21 61 18 47 18 0 0 0 1 0 0 0 0 0 0 0
9 1 0 4 179 569 524 619 482 222 101 28 50 116 111 86 56 49 55 50 53 41 3 0 1 2 0 0 0 0 0 0
8 11 8 9 4 1 0 383 519 522 270 177 96 71 151 125 120 159 156 119 60 56 38 32 2 0 0 0 0 0 2 5
0 1 13 21 0 0 0 1 0 506 494 431 292 173 103 152 149 130 124 102 75 61 54 56 41 49 14 0 0 0 20 39
0 0 0 0 0 0 0 0 2 7 146 468 426 347 216 151 115 105 118 107 99 90 74 50 50 53 7 0 0 0 0 0

GFSFLT1_con_sbcape_069.txt.gz
CAPE
0 0 0 0 0 0 0 5 4 0 1 3 2 7 0 0 0 0 0 0 0 8 41 29 44 7 0 0 0 0 0 0
0 0 0 0 0 0 1 4 0 2 2 3 3 0 2 1 0 0 0 0 0 9 19 26 12 58 5 0 3 1 0 0
0 0 0 0 0 0 0 0 0 0 0 1 0 2 8 3 1 0 0 0 0 0 16 25 1 27 25 0 0 0 0 0
0 0 0 0 0 0 0 0 0 0 0 0 1 0 1 0 0 0 0 0 0 0 5 4 0 1 0 0 0 0 0 0
0 0 0 0 0 0 0 0 0 0 0 2 1 1 0 0 0 0 0 0 0 0 0 0 0 15 12 20 17 1 1 0
0 0 0 0 0 0 0 0 0 0 2 0 1 0 0 0 0 0 0 0 0 0 1 0 2 20 38 55 66 47 25 0
0 0 0 0 0 0 0 0 1 0 0 1 0 0 0 0 0 0 0 0 0 0 0 31 44 26 70 58 61 57 52 44
0 0 0 0 0 0 0 0 0 0 0 0 0 0 0 0 0 0 0 0 0 0 1 9 32 35 33 50 31 33 28 35
0 0 0 0 0 0 0 0 0 2 1 0 0 0 0 0 0 0 0 0 0 0 0 13 11 9 12 36 21 20 36 41
13 0 0 0 0 0 0 0 0 1 0 0 0 0 0 0 0 0 0 0 0 0 0 0 6 2 1 17 14 11 25 28
4 0 0 0 0 0 0 0 0 0 0 5 2 1 1 0 0 0 0 0 0 0 0 0 0 1 6 17 16 0 2 7
0 28 0 0 0 0 0 0 0 0 0 1 4 3 0 0 0 0 0 0 0 0 0 0 0 0 3 6 6 2 0 0
0 16 0 0 0 0 0 0 0 0 0 0 0 4 6 2 1 0 0 0 0 0 0 0 0 0 0 0 0 1 0 0
0 0 0 0 0 0 0 0 0 0 0 0 0 0 4 6 8 4 0 0 0 0 0 0 0 0 0 0 0 0 0 0
0 0 0 0 0 0 1 0 0 0 0 0 0 0 0 1 3 4 7 2 1 0 0 0 0 0 0 0 0 0 0 0
0 0 0 0 0 0 0 0 0 0 0 0 0 0 0 0 0 1 10 4 2 1 0 0 0 0 0 2 0 0 0 0
0 0 0 0 0 0 0 0 0 0 1 0 0 0 0 0 0 0 0 1 2 2 2 0 0 0 0 0 0 0 0 0
0 0 0 0 0 0 0 0 0 0 0 0 0 0 1 1 0 0 0 0 10 4 12 26 14 1 0 0 0 0 0 0
0 0 0 0 0 0 0 0 0 0 0 0 0 0 0 0 9 34 56 50 36 44 50 35 37 35 3 0 0 0 0 0

GFSFLT1_con_sbcape_072.txt.gz
CAPE
0 21 0 0 0 0 0 0 0 0 0 1 2 0 0 0 3 12 24 4 0 0 0 0 0 0 0 0 0 0 0 0
0 6 0 0 0 0 0 0 0 0 2 1 3 2 1 1 0 0 0 1 0 0 0 0 0 0 0 0 0 0 0 0
0 11 0 0 0 0 0 0 0 1 0 2 0 0 1 0 0 0 0 0 0 0 0 5 14 0 0 0 0 0 0 0
0 8 1 0 0 0 1 0 1 0 0 0 0 0 1 1 1 1 1 0 0 10 1 14 21 33 5 0 0 0 0 0
0 0 0 0 0 0 0 0 0 0 0 0 0 2 3 1 0 0 0 0 0 0 9 6 7 41 17 0 0 0 0 0
0 0 3 0 0 1 0 0 0 0 0 0 0 2 0 2 0 0 0 0 0 0 0 1 0 18 1 0 11 0 0 0
0 0 5 0 0 0 0 0 0 0 0 0 0 0 0 1 0 0 0 0 0 0 0 0 0 1 1 0 0 0 0 0
0 0 0 0 0 0 0 0 1 0 0 0 0 0 0 0 0 0 0 0 0 0 0 0 0 0 3 1 0 3 14 30
0 0 0 0 0 0 0 0 0 0 1 0 0 0 0 0 0 0 0 0 0 0 0 0 0 0 1 22 7 5 32 40
0 0 0 0 0 0 0 0 0 0 0 0 0 0 0 0 0 0 0 0 0 0 0 1 0 7 11 16 22 40 33 17
0 0 0 0 0 0 0 0 0 0 0 0 0 0 0 0 0 0 0 0 0 0 0 0 0 0 3 15 17 14 19 12
0 0 0 0 0 0 0 0 0 0 1 0 0 0 0 0 0 0 0 0 0 0 0 0 0 0 0 0 4 1 1 6
0 0 0 0 0 0 0 0 0 0 0 0 0 0 0 0 1 0 0 0 0 0 0 0 0 0 0 0 1 1 0 0
0 0 0 0 0 0 0 0 0 0 0 0 0 0 0 0 0 1 1 0 0 0 0 0 0 0 0 0 0 0 0 0
0 0 0 0 0 0 0 0 0 0 0 0 0 0 0 0 0 0 0 1 1 0 0 0 0 0 0 0 0 0 0 0
0 0 0 0 0 0 0 0 0 0 0 0 0 0 0 0 0 0 0 0 1 0 0 0 0 0 0 0 0 0 0 0
0 0 0 0 0 0 0 0 0 0 0 0 0 0 0 0 0 0 0 0 0 0 1 1 0 0 0 0 0 0 0 0
0 0 0 0 0 0 0 0 0 0 0 0 0 0 0 0 0 0 0 0 0 0 0 0 0 0 0 0 0 0 0 3
0 0 0 0 0 0 0 0 0 0 0 0 0 0 1 1 0 1 0 0 0 0 1 0 1 3 0 0 0 0 0 0

GFSFLT1_con_sbcape_075.txt.gz
CAPE
0 2 7 9 0 0 0 0 0 1 1 0 0 2 2 16 4 2 1 0 0 0 0 0 0 0 0 0 0 0 0 0
0 11 13 2 0 0 0 0 0 0 1 2 1 0 1 1 1 8 3 0 0 0 0 0 0 0 0 0 0 0 0 0
0 3 21 2 0 0 0 0 0 0 0 0 0 0 3 0 1 0 22 4 0 0 0 0 0 0 0 0 0 0 0 0
0 3 21 11 0 0 0 0 0 0 0 0 0 0 2 1 1 3 0 4 1 0 0 0 0 0 0 0 0 0 0 0
4 6 16 20 0 0 0 0 0 0 0 0 0 0 1 2 1 1 1 0 1 0 0 10 18 1 5 2 0 0 0 0
0 26 19 26 0 0 0 0 1 0 0 0 0 0 0 0 1 1 1 1 0 0 0 0 1 15 19 22 0 0 0 5
0 16 21 29 6 0 0 0 0 0 0 0 0 0 0 0 1 1 0 1 1 0 0 0 0 0 0 11 7 5 0 0
0 0 9 34 14 0 0 0 0 0 0 0 0 0 0 0 0 3 0 0 0 0 0 0 0 0 1 0 8 11 2 1
0 0 3 25 25 1 0 0 0 0 0 0 0 0 0 0 0 0 0 0 0 0 0 0 0 0 0 0 0 1 0 0
0 0 0 5 13 0 0 0 0 0 0 1 0 0 0 0 0 0 0 0 0 0 0 0 0 0 0 0 0 0 0 0
0 0 0 4 0 0 0 0 0 0 0 0 0 0 0 0 0 0 0 0 0 0 0 0 0 0 0 0 0 1 2 2
0 0 0 0 0 0 0 0 0 0 0 0 0 0 0 0 0 0 0 0 0 0 0 0 0 0 0 0 0 0 0 5
0 0 0 0 0 0 2 2 0 0 0 0 0 0 0 0 0 0 0 0 0 0 0 0 0 0 0 0 0 1 2 6
0 0 0 0 0 0 0 0 0 0 0 0 1 0 0 0 0 0 0 0 0 0 0 0 0 0 0 0 1 0 0 2
0 0 1 1 1 2 1 0 0 0 0 0 0 0 0 0 0 0 0 0 0 0 0 0 0 0 0 0 0 0 0 0
1 2 1 1 5 3 2 1 0 0 0 0 0 0 0 0 0 0 0 0 0 0 0 0 0 0 0 0 0 0 0 0
0 0 0 0 0 0 0 0 0 0 0 0 0 0 0 0 0 0 0 0 0 0 0 0 0 0 0 0 0 0 0 0
0 0 0 0 0 0 0 0 0 0 0 0 0 0 0 0 0 0 1 0 0 0 0 0 0 0 0 0 0 0 0 0
0 0 0 0 0 0 0 0 0 0 0 0 0 0 0 0 0 1 1 1 2 4 1 0 0 0 0 0 0 0 0 0

GFSFLT1_con_sbcape_078.txt.gz
CAPE
50 47 77 14 0 0 0 1 0 0 0 0 2 5 9 7 16 1 3 1 24 9 1 0 0 0 0 0 0 0 0 0
0 62 48 0 0 0 0 1 1 0 0 1 4 2 2 9 19 16 3 8 27 0 0 0 0 0 0 0 0 0 0 0
0 51 41 3 8 1 0 0 0 0 0 0 0 1 0 2 1 4 2 1 0 1 0 0 0 0 0 0 0 0 0 0
0 15 39 3 4 6 0 0 0 0 0 0 0 0 1 1 1 9 3 2 1 0 0 0 0 0 0 0 0 0 0 0
0 2 22 7 2 6 0 0 0 0 0 0 0 0 1 0 0 1 3 1 1 0 0 0 0 0 0 0 0 0 0 0
6 8 39 11 0 0 0 0 0 0 0 0 0 0 0 0 1 1 1 0 0 0 0 0 0 0 0 6 0 0 0 0
0 1 15 24 1 0 0 0 0 0 0 0 0 0 0 0 0 3 1 0 2 0 0 0 0 3 15 23 5 0 0 0
0 0 7 2 2 4 0 0 0 0 1 0 0 0 0 0 0 0 1 1 0 3 1 3 0 0 0 6 18 10 3 8
0 0 0 1 2 2 0 1 0 1 1 1 0 0 0 0 0 0 5 1 1 0 3 0 1 0 0 0 0 6 5 2
0 0 1 4 9 2 0 1 0 0 0 0 0 0 0 0 0 0 0 0 0 0 0 0 1 1 0 2 27 19 0 0
0 0 0 7 10 0 1 0 0 0 0 0 0 0 0 0 0 0 0 0 0 0 0 0 0 0 0 1 3 1 5 0
0 0 0 7 1 1 0 1 0 0 0 0 0 0 0 0 0 0 0 0 0 0 0 0 0 0 0 0 0 0 0 0
0 0 0 0 0 1 2 0 0 0 0 0 1 0 0 0 0 0 0 0 0 0 0 0 0 0 0 0 0 0 0 0
1 1 1 2 4 3 0 0 0 0 0 0 0 0 0 0 0 0 0 0 0 0 0 0 0 0 0 0 0 0 0 0
1 1 2 2 1 3 3 1 2 0 0 0 0 0 0 0 0 0 0 0 0 0 0 0 0 0 0 0 0 0 0 0
1 2 2 1 4 3 4 2 2 0 1 0 0 0 0 0 0 0 0 0 0 0 0 0 0 0 0 0 0 0 0 0
1 1 0 1 1 1 0 0 0 0 0 0 0 0 0 0 0 1 0 0 0 0 0 0 0 0 0 0 0 0 0 0
0 1 1 1 1 0 0 0 0 0 0 0 0 0 0 0 0 0 0 1 0 2 0 0 0 0 0 0 0 0 0 0
0 0 0 1 0 0 0 0 0 0 0 0 0 0 0 0 0 0 0 3 1 2 0 1 0 1 1 0 0 0 0 0

GFSFLT1_con_sbcape_084.txt.gz
CAPE
0 0 0 559 1160 1599 1759 1514 1591 1201 242 228 302 294 126 6 6 6 6 6 40 222 184 201 71 65 18 29 141 193 185 138
0 0 0 696 1201 1656 1678 1373 1436 796 334 372 171 310 153 45 41 11 15 16 7 48 72 68 8 6 3 4 165 175 145 144
0 0 8 745 1148 1579 1567 1250 1135 787 526 300 140 50 86 83 64 247 207 109 143 67 31 15 2 3 1 0 125 149 152 134
0 0 0 701 994 1498 1209 1022 1094 508 461 213 159 91 24 37 109 232 121 75 39 35 39 2 2 1 0 0 110 157 150 151
0 0 0 520 882 1342 970 965 1000 377 299 193 112 33 15 80 66 23 86 8 18 1 8 1 2 1 2 1 35 137 126 133
0 0 0 342 789 1312 912 600 655 298 143 247 73 58 45 100 40 28 6 6 5 3 1 1 1 2 2 1 51 174 169 159
1 0 0 223 738 1210 649 284 182 187 226 261 81 70 57 43 41 8 9 8 10 5 1 1 2 1 2 2 77 128 100 153
323 124 181 362 900 745 126 120 73 120 466 163 27 54 41 18 28 5 4 6 5 9 6 4 2 2 1 0 7 34 68 138
457 158 349 457 851 91 16 35 74 49 279 57 7 14 24 19 24 22 8 11 4 2 1 4 5 4 6 4 0 10 40 126
554 166 483 518 668 20 41 60 49 12 58 5 4 12 14 11 8 20 33 51 47 8 4 1 0 0 1 1 0 1 16 73
93 252 412 603 366 51 199 418 29 9 3 6 5 8 12 11 11 25 26 30 27 33 8 4 1 1 0 0 0 7 2 7
2 318 321 322 110 182 158 98 4 3 8 7 1 5 7 11 12 10 21 28 20 31 5 3 2 1 0 0 0 0 10 14
3 2 107 93 40 10 25 20 7 11 8 4 5 18 14 12 8 9 29 33 31 31 23 4 4 2 1 0 0 0 0 0
2 2 2 1 9 9 12 10 10 8 6 7 12 16 9 8 5 30 22 15 22 26 26 38 23 7 7 1 0 0 2 0
2 2 2 2 1 1 1 3 9 10 9 10 12 8 7 6 1 26 3 2 5 20 15 9 12 27 19 6 4 3 2 2
3 4 2 1 2 2 2 2 1 1 1 0 1 0 0 3 7 18 31 30 24 25 27 17 11 19 0 0 26 28 27 29
2 3 1 1 1 1 1 1 2 1 1 0 0 0 0 0 0 2 1 1 0 0 0 0 1 0 0 0 0 0 33 41
3 6 4 2 1 1 2 1 1 1 0 0 0 0 0 1 0 0 0 1 1 1 1 1 0 0 0 0 0 0 1 0
2 4 3 2 1 1 1 1 2 2 1 0 0 2 2 1 0 1 1 3 3 3 2 2 1 1 0 0 0 1 2 3

GFSFLT1_con_sbcape_087.txt.gz
CAPE
0 0 0 0 1 520 1550 2490 2110 2172 2067 1533 1181 815 716 551 495 575 681 490 313 313 135 172 130 261 265 182 86 85 139 142
0 0 0 0 99 1014 1706 2330 2069 2358 1703 1067 911 637 610 339 280 320 350 383 268 192 166 157 59 192 140 151 93 64 52 85
0 0 0 0 481 1314 1809 2182 2066 2005 1327 1263 946 771 465 588 507 266 156 34 16 7 46 71 27 52 54 67 70 58 84 152
0 0 0 15 540 1286 1739 2071 2047 1843 1404 1230 868 571 353 377 221 183 691 502 431 305 181 97 4 63 14 5 24 48 52 94
0 0 0 8 580 1171 1619 1921 1875 1758 1466 1121 782 495 292 284 207 263 391 276 223 195 172 101 76 9 1 4 12 45 69 143
0 0 0 0 425 998 1645 1718 1642 1607 1336 1040 772 472 242 164 197 219 118 27 4 23 16 21 7 10 0 3 0 38 73 170
19 17 16 8 137 1162 1810 1541 1607 1199 1275 1022 817 486 175 128 237 281 14 12 5 5 1 3 2 1 1 1 0 10 71 123
427 224 59 17 345 1201 1716 1416 1504 1038 1149 1057 710 401 167 87 233 109 11 8 7 4 1 0 1 1 1 2 3 44 113 102
18 598 342 276 377 1222 1213 897 837 713 1035 1008 594 215 114 62 220 29 11 5 11 4 4 1 1 1 1 1 3 35 75 128
0 41 445 633 903 925 563 490 498 541 1185 854 377 194 69 60 148 94 45 11 4 5 6 4 1 2 1 1 1 0 3 94
0 0 144 804 912 431 258 311 415 497 966 550 136 86 37 54 75 71 97 82 17 17 4 10 5 1 2 4 1 0 1 7
0 0 0 532 481 256 160 332 271 363 531 118 82 50 49 44 35 43 24 46 30 49 25 4 3 2 0 2 1 0 0 0
0 0 2 63 350 338 348 180 142 145 134 7 40 15 38 10 5 10 14 19 27 24 46 13 3 2 2 2 4 1 0 3
0 0 2 4 1 62 17 17 41 29 18 6 46 23 8 4 8 2 30 23 24 37 27 11 7 4 2 0 0 0 0 0
0 0 1 3 4 1 1 4 23 14 8 7 7 8 8 14 2 16 17 10 19 13 14 29 11 5 3 2 0 0 0 0
0 1 2 1 4 2 2 1 0 0 0 0 1 0 4 5 3 0 4 4 2 6 12 18 3 0 0 0 0 3 4 1
1 0 1 2 3 3 1 2 1 0 1 1 0 0 1 1 0 0 1 0 0 0 0 0 0 0 0 0 0 0 0 0
4 3 3 3 4 4 3 3 1 0 1 1 1 1 1 1 0 0 1 1 1 2 2 0 1 1 0 0 0 0 0 0
18 6 3 5 2 5 3 4 3 2 1 2 2 1 1 1 1 1 2 2 2 2 2 3 2 1 0 0 0 0 1 2

GFSFLT1_con_sbcape_090.txt.gz
CAPE
0 0 0 0 0 0 2521 2493 2387 2365 2209 2164 1791 1317 1046 1090 915 1002 886 894 742 593 446 388 328 119 75 43 44 48 31 57
0 0 0 0 0 0 2598 2485 2271 2188 2098 1717 1430 1079 810 685 596 659 717 722 495 377 225 255 200 118 81 56 34 7 31 69
0 0 0 0 0 190 2456 2551 2170 2076 2140 1472 1239 968 722 487 271 216 373 598 322 192 118 70 53 59 87 38 6 4 40 29
0 0 0 0 105 1428 2256 2460 2034 2028 1921 1241 1107 815 728 622 445 330 198 127 185 116 69 68 37 33 75 54 11 1 11 39
0 0 0 0 259 1354 1891 2364 1868 2012 1550 1382 1038 753 508 469 324 249 315 353 155 85 84 108 66 44 33 34 18 11 5 18
0 0 0 0 221 1223 1540 2173 1928 1762 1341 1514 1109 788 527 350 390 341 356 243 186 125 179 125 74 10 7 38 19 14 2 9
105 136 26 0 163 1036 1521 2010 1838 1819 1498 1536 1067 858 509 341 282 304 147 12 0 0 0 12 20 40 6 14 25 22 3 6
2 53 230 91 68 1056 1594 1878 1747 1778 1523 1381 1075 916 616 407 353 207 55 0 1 1 1 4 5 7 1 5 16 15 4 3
0 3 18 0 533 1532 1725 1714 1555 1528 1462 1251 1099 758 380 290 302 92 26 0 0 0 2 0 0 1 1 0 5 1 0 1
0 0 0 0 731 1631 1759 1337 1421 1143 1223 1191 922 600 261 234 261 69 50 1 0 1 2 1 1 1 1 2 2 1 1 7
0 0 0 173 1062 905 813 915 973 823 1237 1188 623 397 192 210 164 46 60 34 3 2 3 3 1 1 1 1 0 5 6 27
0 0 0 0 67 510 631 484 622 684 896 671 321 291 125 86 130 133 100 61 8 1 1 1 2 1 1 0 1 1 0 0
0 0 0 0 0 2 385 375 395 432 339 271 200 70 78 90 88 84 40 39 24 8 2 2 1 2 0 0 0 0 0 0
0 0 1 0 2 1 2 260 197 94 28 20 31 31 50 16 20 5 11 11 13 14 14 2 1 0 0 0 0 0 0 0
0 0 2 3 2 3 2 3 1 1 1 6 32 4 3 3 3 24 6 10 11 18 21 5 1 0 1 0 0 0 0 0
1 2 3 3 5 2 1 3 2 0 1 1 2 1 0 0 0 0 0 0 0 0 0 0 0 0 0 0 0 0 0 0
5 3 3 2 4 3 2 3 2 1 1 2 1 0 1 2 0 0 0 0 0 0 0 0 0 0 0 0 0 0 0 0
8 6 6 5 4 5 3 3 2 2 1 1 1 0 0 2 0 0 1 1 0 1 1 1 2 2 0 0 0 0 0 1
11 9 6 4 2 2 2 1 1 2 2 3 1 1 1 1 1 1 1 1 1 1 1 2 2 3 1 0 0 0 1 2

GFSFLT1_con_sbcape_093.txt.gz
CAPE
0 0 0 0 0 0 1726 1903 1840 1843 1409 990 826 691 671 598 647 500 724 748 566 355 216 130 123 84 4 0 0 0 4 37
0 0 0 0 0 0 1675 1915 1769 1740 1496 1389 1030 871 671 494 521 721 598 581 383 228 157 91 124 45 0 0 1 8 19 30
0 0 0 0 0 0 1702 1914 1935 1897 1662 1419 1040 571 262 315 441 588 506 428 231 128 170 165 76 2 3 19 16 14 12 46
0 0 0 0 0 17 1851 1940 1982 1732 1317 591 321 185 177 161 214 315 373 516 167 109 110 122 111 91 46 33 15 4 5 18
0 0 0 0 0 1235 1834 1831 1786 1443 1000 975 470 495 352 246 194 203 249 283 255 95 99 59 50 25 51 56 6 0 1 2
6 28 6 0 22 1977 1914 1691 1679 1445 948 678 367 246 122 151 170 161 188 90 114 102 64 3 40 27 58 114 34 0 0 1
15 12 2 4 0 1310 1853 1594 1615 1405 876 639 485 313 165 200 160 114 130 203 138 67 84 49 4 13 37 44 68 10 1 1
0 0 0 0 0 0 1369 1518 1499 1299 1006 816 630 422 198 116 122 115 25 1 0 0 0 0 0 1 11 18 45 40 1 0
0 0 0 0 3 15 929 1297 1367 986 938 777 596 455 184 123 146 46 0 0 0 0 0 0 2 0 3 2 16 24 9 1
0 0 0 0 0 200 745 811 995 834 694 623 678 454 183 244 97 51 0 0 0 0 0 0 0 1 1 1 11 6 22 2
0 0 0 0 0 1 71 146 250 712 781 678 593 287 132 95 70 29 0 0 0 0 0 0 2 1 1 1 8 1 3 0
0 0 0 0 0 0 1 24 365 303 545 599 314 140 238 105 67 25 6 0 0 0 0 1 1 1 1 0 1 1 1 1
0 0 0 0 1 0 0 0 120 108 278 218 202 72 70 160 188 126 68 21 1 0 0 0 0 1 0 0 0 1 1 11
0 0 1 1 1 2 1 1 0 65 73 23 24 9 43 73 117 63 51 41 4 0 0 0 0 2 0 0 0 0 0 0
1 2 2 2 2 2 2 2 1 0 1 1 6 0 0 0 2 12 5 0 4 4 1 1 0 0 0 0 0 0 0 0
4 4 4 3 2 2 2 2 2 1 1 1 1 1 0 0 0 0 0 0 0 0 0 0 0 0 0 0 0 0 0 0
3 3 4 4 3 2 2 7 16 1 2 3 4 0 0 0 0 0 0 0 0 0 0 0 0 0 0 0 0 0 0 0
5 7 7 6 3 4 2 2 4 8 2 2 1 2 1 0 0 0 0 1 1 1 1 1 1 1 0 0 0 0 0 0
4 5 5 3 2 3 2 1 1 1 1 2 2 2 3 1 0 1 1 1 1 1 1 2 2 3 1 1 0 0 1 1

GFSFLT1_con_sbcape_099.txt.gz
CAPE
0 0 0 0 0 0 33 1892 2065 2047 1881 1305 1066 1058 1082 873 779 660 447 426 334 235 152 137 145 308 232 168 84 18 29 11
0 0 0 0 0 0 0 1408 1931 1788 1674 1475 1263 1229 1235 873 886 617 498 452 267 214 58 106 254 241 129 162 74 9 1 0
0 0 0 0 0 0 0 1005 1777 1801 1718 1666 1454 1269 1127 1036 622 422 471 303 259 186 55 141 141 93 20 40 16 1 2 1
0 0 0 0 0 0 0 816 1709 1879 1783 1539 418 111 120 241 220 309 307 283 282 393 131 140 129 98 24 2 3 0 0 2
0 0 0 0 0 0 0 570 1719 1875 1817 1502 1039 1048 871 730 742 594 145 138 121 192 146 110 112 77 19 2 0 0 0 0
0 0 0 0 0 0 0 108 1505 1778 1847 1565 1136 1051 781 463 418 39 264 120 86 92 116 79 86 32 5 5 2 2 0 0
0 0 0 0 0 0 0 249 1391 1753 1875 1581 1183 999 254 145 172 76 44 114 167 130 94 102 90 37 5 2 1 2 1 0
1 0 0 0 0 0 1 12 1647 1799 1745 1520 961 640 198 178 129 116 21 20 49 130 66 57 20 0 1 0 0 0 1 0
1 0 0 0 0 3 0 1 1535 1569 1438 1083 562 130 195 142 63 45 44 31 37 16 35 8 3 0 1 0 9 1 3 0
1 0 0 0 1 6 3 3 1018 1143 1172 393 182 144 103 77 17 19 13 20 45 41 15 1 0 1 2 6 9 13 15 5
1 1 0 1 2 4 9 4 3 383 378 300 183 101 53 17 22 18 0 1 0 0 0 0 0 0 0 0 0 1 12 31
1 1 1 1 2 7 10 6 3 3 33 126 38 7 0 0 1 0 0 0 0 0 0 0 0 0 0 0 4 5 18 12
2 2 2 1 1 1 7 2 5 7 2 9 0 0 0 0 0 3 0 0 0 0 0 0 0 0 0 0 4 1 1 1
2 2 3 2 2 2 3 7 4 3 2 29 14 5 4 1 4 9 1 0 0 0 0 0 0 0 0 0 1 1 0 0
3 2 3 4 3 3 3 3 3 1 1 2 10 1 15 2 14 18 7 0 0 0 0 0 0 0 0 0 0 0 0 0
6 5 4 4 4 3 3 3 4 1 3 2 3 2 1 2 1 0 0 0 0 0 0 0 0 0 0 0 0 0 1 0
6 5 6 5 6 5 3 3 4 2 2 3 5 4 3 2 0 0 2 0 0 0 0 0 0 0 0 1 1 0 0 0
4 5 7 6 4 7 4 2 2 1 1 2 1 3 5 3 2 0 0 1 0 0 1 1 1 1 0 0 0 0 0 0
4 4 3 3 2 2 3 2 0 1 0 1 1 0 0 2 1 1 1 1 1 2 1 1 1 3 1 0 0 0 0 1

GFSFLT1_con_sbcape_105.txt.gz
CAPE
0 0 0 0 0 0 0 0 0 1359 1906 1794 1699 1409 1434 1182 994 1018 1024 960 987 1065 1148 1029 661 425 418 317 263 251 353 447
0 0 0 0 0 0 0 0 0 0 1163 1801 1405 1105 1353 1160 1068 1326 1041 955 732 941 1219 967 537 610 435 330 245 157 107 144
0 0 0 0 0 0 0 0 0 0 235 1541 1819 1532 1333 1471 1259 1062 1127 1044 912 1007 1097 832 521 462 447 464 284 239 160 97
0 0 0 0 0 0 0 0 0 0 7 1361 2070 1520 1482 1401 1355 1148 1105 1370 1170 1119 990 749 441 396 424 551 471 322 147 97
0 0 0 0 0 0 0 0 1 0 1 614 1615 1346 1295 1444 1645 1426 1223 1042 1055 1125 909 706 556 420 600 513 488 371 215 104
0 0 0 0 0 0 0 0 1 3 2 9 1476 1623 1725 1931 1976 1986 1609 1159 1157 1012 861 763 813 653 497 390 391 282 185 101
0 0 0 0 0 0 0 0 0 2 2 3 908 1684 1801 1716 1991 1973 1620 1080 941 948 719 656 632 441 560 619 215 223 124 92
0 0 0 0 0 0 0 0 2 2 2 5 309 1516 1548 1756 1802 1953 1448 991 888 689 655 662 615 408 411 449 168 159 97 71
0 0 0 3 1 0 1 4 4 7 5 6 515 1428 1468 1748 1821 1758 1380 878 783 710 585 642 641 318 222 430 444 311 56 17
0 0 0 2 3 3 7 6 5 6 14 6 1274 1536 1378 1256 1547 1726 1238 865 625 430 401 357 312 126 170 237 131 199 235 16
0 1 2 3 2 4 6 6 9 8 11 7 520 1398 1113 906 946 1244 1018 826 513 222 208 218 94 106 150 82 107 138 6 3
0 0 2 1 1 4 5 5 6 7 4 6 2 636 652 476 454 520 420 245 157 126 99 60 78 88 145 104 148 6 6 2
0 0 1 1 1 4 5 5 5 7 5 4 25 317 262 186 184 186 126 114 97 61 31 1 3 14 17 10 1 0 0 8
0 0 2 3 3 4 5 5 6 6 6 4 5 6 16 139 82 50 49 26 20 23 1 1 0 1 0 0 0 2 8 11
0 0 3 4 4 4 3 4 5 9 6 4 3 4 3 2 24 25 9 4 6 2 3 1 0 0 0 0 0 6 6 3
1 1 4 4 4 3 2 4 4 5 10 4 3 2 2 2 1 1 1 3 0 3 1 0 0 0 0 0 5 6 0 0
1 1 2 3 4 5 4 5 4 4 4 7 4 2 1 2 1 2 2 0 1 0 1 0 1 1 0 0 1 0 0 0
2 3 5 5 5 6 3 5 3 3 4 4 3 3 2 1 1 0 1 1 0 1 1 0 1 2 0 0 0 0 0 0
4 4 3 5 5 5 6 5 3 2 2 2 3 2 2 0 0 0 0 0 0 0 1 1 2 3 1 0 0 1 1 2

GFSFLT1_con_sbcape_111.txt.gz
CAPE
0 0 0 0 0 0 0 0 0 0 0 5 501 1135 1871 2480 2615 2696 3018 2594 2831 3147 2748 2566 2368 2317 2419 2416 2476 2289 2095 1711
0 0 0 0 0 0 0 0 0 0 0 0 0 799 1237 1902 2296 2891 3362 2855 2655 2971 2708 2397 2398 1892 2244 1970 2226 1810 1841 1888
7 0 0 0 0 0 0 0 0 0 0 0 13 26 310 919 1791 2160 2885 3257 2980 2750 2794 2367 2491 1872 1742 1652 1685 1561 1685 1849
0 0 0 0 0 0 0 0 0 0 0 0 0 12 61 690 1365 1425 2193 2981 3122 2777 2192 2535 2623 1850 1542 1697 1549 1418 1373 1429
0 0 0 0 0 0 0 0 0 0 0 0 0 0 0 46 1209 1272 1821 2383 2690 2722 2693 2105 2732 2116 1922 1643 1398 1628 1472 765
0 0 0 0 0 0 0 0 0 0 0 3 5 3 0 10 457 1729 2047 2148 2441 1867 2032 2303 2555 2340 2261 1955 1494 1725 1567 1250
0 0 0 0 0 0 0 0 0 0 2 4 6 6 7 9 84 739 2163 2086 2362 1935 1770 1723 2252 2374 1913 2196 2133 1684 1800 1493
0 0 0 0 0 0 0 0 0 2 4 6 3 4 11 10 10 268 1137 1953 2208 2169 1539 1797 1795 1912 2014 2275 2088 1192 1849 1735
0 0 0 0 0 0 0 1 2 2 5 6 4 4 12 13 13 7 808 1938 2093 2354 1577 1697 1850 1877 2071 2140 1995 1408 1451 1616
0 0 0 0 0 2 7 6 6 7 9 9 13 10 10 14 13 15 300 1606 2030 2495 1846 1575 1621 1657 1679 1964 1990 2149 1542 636
0 0 0 0 0 4 8 7 10 10 11 8 10 9 12 11 10 10 214 1781 2029 2290 2332 1657 1493 1466 1479 1684 1824 1835 1877 1405
0 0 0 0 1 4 5 4 10 9 11 6 7 11 17 16 19 8 787 1729 1865 1764 1851 1609 1461 1501 1262 1357 1524 1490 1241 893
0 0 1 1 2 7 4 6 13 9 6 4 10 15 14 10 5 319 915 1299 1597 1746 1705 1421 1279 1223 1032 1162 1308 1406 1011 823
0 0 2 1 6 8 7 7 11 5 0 5 11 13 9 7 6 2 2 811 1033 1095 1334 1408 1136 904 788 1123 1388 1139 680 716
2 2 2 4 8 8 7 6 9 8 3 7 6 3 9 10 11 8 3 3 248 547 710 757 738 640 598 739 873 908 556 470
3 5 2 9 7 6 8 8 8 10 7 5 2 2 4 5 6 5 4 4 3 1 10 22 92 203 188 455 449 453 44 0
5 4 11 12 8 9 12 14 8 9 5 5 3 3 0 1 3 3 2 2 2 2 1 1 1 1 0 0 53 3 1 0
7 11 12 10 11 16 14 20 13 9 5 5 5 4 3 2 3 0 0 3 2 3 4 2 3 10 1 0 0 1 0 0
8 9 10 11 15 12 17 18 16 16 7 5 3 4 3 3 2 0 3 0 0 1 2 1 0 1 2 1 0 0 0 1

GFSFLT1_con_sbcape_114.txt.gz
CAPE
0 0 0 0 0 0 0 0 0 0 0 13 0 0 1259 2082 2186 1924 2131 2213 2211 2409 2348 2398 2025 2068 2139 2158 1976 2056 1842 1661
5 3 0 0 0 0 0 0 0 0 0 0 0 0 15 1122 1804 2201 2426 2355 2401 2287 2250 2463 2077 1854 1827 1843 2065 1911 1890 1879
1 0 0 0 0 0 0 0 0 0 0 0 0 0 0 10 8 336 1876 2430 2377 2496 2433 2413 2313 1927 1611 1803 2140 1840 1655 1736
0 0 0 0 0 0 0 0 0 0 0 0 0 0 0 1 1 2 1252 1664 2544 2014 2241 2277 2078 1869 1569 1460 1929 1533 1378 1339
0 0 0 0 0 0 0 0 0 0 0 0 0 0 0 0 0 0 36 794 1118 2136 1946 2211 1982 2038 1548 1289 1577 1556 1310 1145
0 0 0 0 0 0 0 0 0 0 0 0 0 0 0 0 0 0 0 12 463 1752 1975 2090 2008 2092 1782 1281 1281 1516 1234 1057
0 0 0 0 0 0 0 0 0 0 0 0 2 5 2 5 2 0 0 0 32 1153 1725 1921 1861 1775 1874 1589 1493 1452 1244 1253
0 0 0 0 0 0 0 0 0 1 2 4 4 4 5 4 5 6 3 0 0 208 1318 1584 1714 1782 1867 1879 1762 1467 1400 1244
0 0 0 0 0 0 0 0 1 3 4 6 7 8 8 8 8 8 6 6 0 0 1057 1197 907 1495 1559 1665 1677 1671 1480 1311
0 0 0 0 0 0 0 0 0 2 8 9 8 9 7 8 7 9 8 6 4 2 31 1361 1513 1657 1506 1599 1729 1626 1477 1187
0 0 0 0 0 0 0 3 4 4 9 9 10 13 11 10 13 11 9 5 5 6 0 1022 1833 1731 1666 1692 1656 1463 1289 1244
0 0 0 0 0 0 2 4 6 6 11 8 10 15 12 14 17 15 14 8 4 5 3 823 1594 1569 1627 1677 1581 1445 1381 1310
0 0 0 0 0 1 4 5 7 8 8 9 12 12 8 12 10 9 14 11 0 2 83 948 1249 1330 1306 1526 1549 1438 1387 1084
0 0 0 2 3 5 6 8 8 6 5 8 8 5 6 9 7 11 8 9 1 30 784 918 1086 1195 1171 1427 1494 1432 1414 1207
0 1 2 3 5 7 7 14 12 7 6 7 6 6 6 6 7 7 4 8 4 2 8 325 761 1054 1122 1189 1236 1232 1166 935
2 3 1 1 3 9 11 14 16 11 8 5 5 4 5 5 4 3 3 2 5 5 2 3 8 3 37 414 1009 1083 932 73
1 3 4 5 7 10 9 7 6 6 10 5 1 4 4 4 5 2 1 0 1 2 2 6 6 3 0 0 777 604 0 0
6 7 10 6 7 9 7 7 7 9 6 2 1 1 2 1 3 1 1 1 0 1 2 3 4 3 4 6 1 0 0 7
6 8 6 6 5 6 9 5 6 6 5 3 3 1 1 1 0 0 0 0 0 0 0 0 2 4 14 17 8 3 10 8

GFSFLT1_con_sbcape_117.txt.gz
CAPE
0 0 0 0 0 0 0 0 0 0 0 0 0 0 0 0 488 786 1333 1470 1359 1857 1724 1649 1257 1337 1421 1474 1543 1096 1055 988
0 0 0 0 0 0 0 0 0 0 0 0 0 0 0 0 0 0 4 1148 1318 1370 1488 1381 1324 1406 1354 1124 1005 1365 1079 856
0 0 0 0 0 0 0 0 0 0 0 0 0 0 0 0 0 0 0 0 325 1175 1453 1439 1625 1257 800 1050 1076 816 1049 964
0 0 0 0 0 0 0 0 0 0 0 0 0 0 0 0 0 0 0 0 0 255 1257 1328 1355 1302 879 863 884 1113 1244 854
0 0 0 0 0 0 0 0 0 0 0 0 0 0 0 0 0 0 0 0 0 0 2 813 1285 1157 1006 815 950 1196 1019 1016
0 0 0 0 0 0 0 0 0 0 0 0 0 0 0 0 0 0 0 0 0 0 0 0 767 922 869 813 688 1266 894 853
0 0 0 0 0 0 0 0 0 0 0 0 0 0 0 0 0 0 0 0 0 0 0 0 0 920 1141 832 748 842 1301 1228
0 0 0 0 0 0 0 0 0 0 0 0 0 2 3 3 3 3 1 0 0 0 0 0 0 217 1048 1190 791 820 1053 1218
0 0 0 0 0 0 0 0 0 0 0 0 0 0 2 3 1 3 5 6 1 0 0 0 0 0 511 932 899 962 1136 1193
0 0 0 0 0 0 0 0 0 0 0 0 0 0 2 3 5 4 5 5 7 2 1 1 0 0 47 863 832 708 1395 1443
0 0 0 0 0 0 0 0 0 0 0 0 3 3 4 6 6 6 10 11 11 10 0 0 3 4 4 871 549 806 1068 1329
0 0 0 0 0 0 0 0 0 1 1 3 4 6 7 7 9 12 14 14 15 16 16 8 5 4 0 935 844 800 898 1050
0 0 0 0 0 0 0 0 1 1 0 6 9 9 10 10 10 10 15 15 12 14 18 19 0 1 3 871 1338 1067 957 1098
0 0 0 0 1 2 4 0 4 0 2 8 8 10 10 10 10 13 12 13 12 8 3 4 2 3 2 658 991 1261 1069 948
0 0 1 2 3 4 4 1 6 1 10 9 10 10 9 10 10 9 10 10 9 6 6 3 2 0 95 632 642 665 696 937
1 2 3 4 5 5 1 0 4 8 8 8 3 3 6 6 7 6 5 7 7 3 4 5 1 1 1 3 41 551 722 227
3 3 2 3 6 4 1 1 2 4 3 4 1 0 0 2 4 4 2 2 3 0 0 2 2 3 0 0 0 187 1 0
2 2 4 3 1 3 1 2 3 2 2 3 4 0 1 1 2 1 0 0 0 1 0 2 0 0 2 3 0 3 2 4
0 0 0 2 1 2 3 4 2 1 1 1 2 3 2 2 2 1 0 0 0 0 0 0 0 4 2 4 1 4 1 4

GFSFLT1_con_sbcape_120.txt.gz
CAPE
0 0 0 0 0 0 0 0 0 0 0 0 0 0 0 0 0 0 0 89 26 731 839 1245 604 696 1049 1189 1256 963 847 666
0 0 0 0 0 0 0 0 0 0 0 0 0 0 0 0 0 0 0 0 0 0 716 992 823 783 811 875 1132 667 423 306
0 0 0 0 0 0 0 0 0 0 0 0 0 0 0 0 0 0 0 0 0 0 0 12 807 965 847 478 732 444 740 342
0 0 0 0 0 0 0 0 0 0 0 0 0 0 0 0 0 0 0 0 0 0 0 0 0 417 677 651 508 483 313 263
0 0 0 0 0 0 0 0 0 0 0 0 0 0 0 0 0 0 0 0 0 0 0 0 0 0 220 511 454 448 423 196
0 0 0 0 0 0 0 0 0 0 0 0 0 0 0 0 0 0 0 0 0 0 0 0 0 0 0 257 406 367 244 135
0 0 0 0 0 0 0 0 0 0 0 0 0 0 0 0 0 0 0 0 0 0 0 0 1 0 0 0 326 264 38 29
0 0 0 0 0 0 0 0 0 0 0 0 0 0 0 0 0 0 1 1 0 0 0 0 1 1 4 0 1 396 267 164
0 0 0 0 0 0 0 0 0 0 0 0 0 0 0 1 2 2 2 3 2 0 0 1 1 2 4 1 0 71 422 334
0 0 0 0 0 0 0 0 0 0 0 0 0 0 0 1 1 4 5 4 6 6 6 4 4 0 0 1 2 0 410 460
0 0 0 0 0 0 0 0 1 0 0 0 1 0 0 3 0 1 8 7 8 11 10 10 9 8 0 1 1 4 108 416
0 0 0 0 0 0 0 0 1 0 0 0 0 1 6 10 11 11 12 10 11 9 10 12 11 9 9 6 3 3 5 433
0 0 0 0 0 0 0 0 0 5 5 3 0 3 10 8 9 10 11 11 12 12 13 13 13 11 12 9 3 1 0 390
0 0 0 0 1 1 0 0 0 5 5 10 11 14 13 8 8 9 8 9 11 11 9 15 16 15 4 13 0 2 4 379
0 0 0 0 3 0 0 5 2 5 1 2 7 10 16 16 13 10 9 8 8 9 10 9 11 6 4 6 4 1 9 661
1 1 2 0 0 0 1 4 2 2 3 1 4 8 8 9 9 8 8 7 7 6 9 6 8 4 5 2 3 3 33 517
2 1 3 2 0 2 1 1 1 2 1 2 1 3 5 4 7 7 4 4 4 2 2 4 3 6 4 0 0 3 2 1
2 0 2 0 0 1 3 3 2 2 1 1 1 1 1 1 3 2 1 0 0 0 0 1 2 1 5 1 0 1 2 3
0 0 0 0 0 0 0 1 0 0 0 0 1 0 0 1 0 0 0 0 0 0 0 0 0 4 4 0 1 0 2 0

GFSFLT1_con_sbcape_123.txt.gz
CAPE
0 0 0 0 0 0 0 0 0 0 0 0 0 0 0 0 0 0 0 0 0 4 0 0 5 276 352 539 925 754 824 719
0 0 0 0 0 0 0 0 0 0 0 0 0 0 0 0 0 0 0 0 0 0 1 1 35 113 46 408 808 789 522 142
0 0 0 0 0 0 0 0 0 0 0 0 0 0 0 0 0 0 0 0 0 0 0 0 10 1 154 151 619 665 458 119
0 0 0 0 0 0 0 0 0 0 0 0 0 0 0 0 0 0 0 0 0 0 0 0 0 1 4 27 321 285 346 200
0 0 0 0 0 0 0 0 0 0 0 0 0 0 0 0 0 0 0 0 0 0 0 0 0 0 0 0 0 204 21 10
0 0 0 0 0 0 0 0 0 0 0 0 0 0 0 0 0 0 0 0 0 0 0 0 1 2 2 4 0 0 267 58
0 0 0 0 0 0 0 0 0 0 0 0 0 0 0 0 0 0 0 0 0 0 0 0 1 2 2 3 4 1 41 305
0 0 0 0 0 0 0 0 0 0 0 0 0 0 0 0 0 0 1 2 1 0 0 0 1 0 0 1 2 1 0 51
0 1 0 0 0 0 0 0 1 1 0 0 0 0 0 2 1 0 1 7 5 1 2 2 4 5 4 0 0 0 3 0
1 0 1 0 0 0 0 0 1 1 1 1 0 0 0 3 5 4 7 8 6 6 6 9 9 8 8 7 1 1 1 3
0 0 0 0 0 0 2 2 4 3 6 1 0 0 0 6 8 6 6 10 10 10 11 10 11 12 12 11 10 4 4 0
0 0 0 0 0 0 0 1 2 2 7 8 0 4 2 3 4 10 8 10 8 10 11 11 10 8 11 12 11 10 3 1
0 0 0 0 0 0 1 1 1 5 1 4 9 10 11 9 13 10 10 10 10 11 8 9 9 13 15 14 12 16 15 9
0 0 0 1 0 1 1 2 4 0 0 1 7 6 11 17 16 12 10 10 10 9 10 10 10 11 12 13 11 7 9 11
0 0 0 2 2 3 2 1 2 1 2 1 0 4 10 7 11 9 9 9 7 9 11 11 12 9 11 13 10 8 6 10
1 1 1 1 1 2 2 2 4 1 0 0 1 1 2 3 3 5 6 6 7 5 5 8 8 8 12 8 3 2 3 10
1 1 1 1 1 2 0 0 1 0 0 0 0 1 1 1 1 2 1 2 2 1 1 4 5 8 13 8 4 6 2 2
1 1 2 3 2 1 0 0 0 0 0 0 0 0 0 0 1 0 0 0 0 0 0 0 1 4 15 9 2 2 0 1
1 1 1 0 0 0 0 0 0 0 0 0 0 0 0 0 0 0 0 0 0 0 0 0 0 6 15 12 3 0 0 0

GFSFLT1_con_sbcape_126.txt.gz
CAPE
0 0 0 0 0 0 0 0 0 0 0 0 0 0 0 0 0 0 0 0 0 0 1 2 0 0 38 273 408 529 792 893
0 0 0 0 0 0 0 0 0 0 0 0 0 0 0 0 0 0 0 0 0 0 0 0 0 3 0 0 0 27 199 404
0 0 0 0 0 0 0 0 0 0 0 0 0 0 0 0 0 0 0 0 0 0 0 0 0 0 0 8 0 0 0 112
0 0 0 0 0 0 0 0 0 0 0 0 0 0 0 0 0 0 0 0 0 0 0 0 0 0 0 0 0 13 10 126
0 0 0 0 0 0 0 0 0 0 0 0 0 0 0 0 0 0 0 0 0 0 0 0 0 0 1 1 6 6 2 19
0 0 0 0 0 0 0 0 0 0 0 0 0 0 0 0 0 0 0 0 0 0 0 0 0 1 0 0 0 0 4 0
0 0 0 0 0 0 0 0 0 0 0 0 0 1 1 1 1 1 1 1 0 0 0 0 1 1 2 1 1 0 3 4
0 0 0 0 1 0 0 0 0 0 0 0 0 0 0 1 1 0 0 1 0 2 2 1 1 2 1 4 1 0 0 2
0 0 0 0 0 0 0 0 1 1 1 0 0 0 1 1 1 0 4 6 6 5 7 8 5 9 11 9 9 5 3 3
0 0 0 0 0 0 0 0 0 0 1 0 1 0 2 3 3 7 8 7 6 6 5 8 8 8 10 10 11 11 6 5
0 0 0 0 0 0 1 1 3 3 6 2 7 7 8 4 7 8 8 7 7 9 7 10 9 9 8 8 9 11 13 7
0 0 0 0 0 0 0 2 4 6 5 0 7 7 8 10 12 9 10 10 9 12 13 11 14 12 11 10 12 13 13 13
0 0 0 0 0 0 1 1 1 3 2 4 7 7 11 9 10 13 12 9 8 8 11 11 12 11 12 13 12 11 10 13
0 0 0 0 2 2 2 3 3 6 6 0 2 2 8 4 8 10 9 9 8 8 6 8 12 10 13 14 17 13 10 9
0 0 0 0 2 2 2 2 5 5 4 7 6 4 5 8 5 6 9 8 8 7 7 12 13 14 13 16 10 10 4 5
0 0 0 0 1 0 0 0 0 0 2 0 0 3 2 2 2 2 2 1 4 6 5 7 6 11 14 16 10 9 8 6
0 0 0 0 0 0 0 0 0 0 0 0 0 1 2 1 0 0 1 0 1 1 1 3 3 10 14 19 13 9 7 5
0 0 0 0 0 0 0 0 0 0 0 0 0 0 0 0 0 0 0 0 0 0 0 0 0 3 18 16 11 5 5 4
0 0 0 0 0 0 0 0 0 0 0 0 0 0 0 0 0 0 0 0 0 0 0 0 0 3 19 13 9 0 0 0

GFSFLT1_con_sbcape_129.txt.gz
CAPE
0 0 0 0 0 0 0 0 0 0 0 0 0 0 0 0 0 0 0 0 0 0 0 0 12 145 443 223 11 113 1035 1696
0 0 0 0 0 0 0 0 0 0 0 0 0 0 0 0 0 0 0 0 0 0 0 0 1 3 6 62 428 330 163 518
0 0 0 0 0 0 0 0 0 0 0 0 0 0 0 0 0 0 0 0 0 0 0 0 2 2 1 3 19 33 156 490
0 0 0 0 0 0 0 0 0 0 0 0 0 0 0 0 0 0 0 0 1 1 0 2 2 2 3 7 11 7 15 221
0 0 0 0 0 0 0 0 0 0 0 0 0 0 0 0 0 0 0 0 2 3 4 2 4 4 2 2 2 8 12 17
0 0 0 0 0 0 0 0 0 0 0 0 0 0 0 0 0 0 1 1 4 6 9 4 8 8 6 13 7 4 9 17
0 1 0 0 0 0 0 0 0 1 1 1 2 3 3 3 3 3 2 2 3 5 3 4 3 5 3 6 3 1 5 7
2 0 0 0 0 0 0 0 0 0 1 5 6 4 5 5 6 5 7 4 4 5 8 3 3 6 11 12 11 6 1 2
1 0 0 0 0 0 0 0 0 0 3 6 6 7 5 7 8 6 8 7 7 5 5 6 6 6 11 14 19 21 21 5
0 0 0 0 0 0 1 2 1 3 4 6 5 3 7 7 7 7 8 10 7 4 4 6 6 8 7 13 18 17 16 18
0 0 0 0 0 1 2 5 5 4 7 7 7 5 10 8 10 12 6 9 7 7 7 8 10 10 9 9 16 16 17 17
0 0 0 0 1 1 3 5 5 6 7 7 7 6 10 8 10 11 11 6 9 9 8 7 11 12 10 12 12 15 23 22
0 0 0 1 2 2 4 4 5 8 8 7 6 6 6 8 8 7 10 9 11 10 9 12 9 9 12 12 12 11 12 14
0 0 0 2 3 1 0 2 4 4 6 5 5 7 8 8 7 9 8 9 9 9 12 15 14 18 17 15 18 12 12 10
0 0 2 4 0 0 0 0 0 1 2 4 5 6 9 10 9 7 9 9 10 12 17 15 17 22 14 14 12 19 15 17
0 1 2 1 0 0 0 0 0 0 0 0 1 2 3 5 7 7 9 11 12 11 13 13 20 20 21 17 12 16 16 11
0 1 0 1 1 0 0 0 0 0 0 1 1 1 1 2 2 2 6 6 9 12 11 12 13 24 15 15 14 14 12 11
2 2 3 4 3 4 0 0 0 0 1 1 1 1 1 5 3 2 5 11 8 12 10 14 11 16 16 15 11 15 6 4
4 5 3 1 2 3 1 0 0 0 1 1 2 1 3 3 3 4 7 12 12 15 18 16 9 8 8 12 7 5 4 1

GFSFLT1_con_sbcape_132.txt.gz
CAPE
0 0 0 0 0 0 0 0 0 0 0 0 0 0 0 0 0 0 0 0 0 0 0 0 0 5 263 788 1113 1288 869 484
0 0 0 0 0 0 0 0 0 0 0 0 0 0 0 0 0 0 0 0 0 0 0 0 0 0 4 3 35 607 997 641
0 0 0 0 0 0 0 0 0 0 0 0 0 0 0 0 0 0 0 0 0 0 0 0 0 0 0 3 9 8 180 513
0 0 0 0 0 0 0 0 0 0 0 0 0 0 0 0 0 0 0 0 0 0 0 0 1 0 0 1 1 7 15 12
0 0 0 0 0 0 0 0 0 0 0 0 0 0 0 0 0 0 0 0 0 1 3 4 3 2 1 2 0 3 8 11
0 0 0 0 0 0 0 0 0 0 0 0 0 0 0 0 0 0 0 0 0 1 6 10 7 8 5 10 14 10 8 2
2 0 0 0 0 0 0 0 0 0 0 2 4 4 2 0 2 1 0 0 1 3 6 10 8 9 9 8 8 11 5 7
6 0 0 0 0 0 0 0 0 0 2 2 3 3 7 4 7 7 10 5 4 7 10 9 9 6 11 14 12 4 3 4
3 0 0 0 0 0 0 0 0 1 3 4 5 5 7 7 8 11 10 10 9 11 9 9 17 16 14 13 18 20 15 23
2 0 0 0 0 0 2 1 1 3 7 6 5 6 8 7 8 11 9 10 10 10 12 11 12 14 15 15 21 19 18 21
0 0 0 0 0 0 2 3 4 5 6 6 5 7 8 8 8 11 11 11 11 11 11 6 6 7 12 15 14 16 16 20
0 0 0 0 0 0 1 3 5 6 6 5 6 7 9 8 9 9 9 10 10 7 11 9 8 7 9 15 12 9 12 16
0 0 0 0 0 0 0 2 5 7 6 6 8 8 9 11 8 6 11 9 11 10 13 11 12 11 12 11 13 19 20 19
0 0 0 0 0 0 0 0 2 3 5 6 9 8 9 10 10 13 12 11 11 11 11 14 21 22 10 15 18 13 12 15
0 0 0 0 0 0 0 0 0 0 0 1 2 3 6 9 10 12 13 13 13 12 13 11 21 20 18 17 15 14 10 10
0 0 0 0 0 0 0 0 0 0 0 0 3 3 3 5 7 10 10 11 12 11 11 11 15 21 36 24 21 22 21 17
0 0 0 0 0 0 0 0 0 0 0 2 3 4 5 6 9 8 12 14 13 13 14 13 16 23 11 14 16 28 24 18
0 1 4 2 0 0 0 0 0 1 1 2 2 3 4 5 7 8 14 14 15 11 20 23 28 31 6 8 13 21 18 23
6 6 8 7 6 2 1 1 2 2 4 4 3 2 2 4 5 6 11 27 16 15 12 23 20 28 8 5 5 12 15 11

GFSFLT1_con_sbcape_135.txt.gz
CAPE
0 0 0 0 0 0 0 0 0 0 0 0 0 0 0 0 0 0 0 0 0 0 0 0 0 0 2 57 270 499 1326 1403
0 0 0 0 0 0 0 0 0 0 0 0 0 0 0 0 0 0 0 0 0 0 0 0 0 0 0 0 11 81 123 732
0 0 0 0 0 0 0 0 0 0 0 0 0 0 0 0 0 0 0 0 0 0 0 0 0 0 0 0 3 18 47 112
0 0 0 0 0 0 0 0 0 0 0 0 0 0 0 0 0 0 0 0 0 0 0 1 2 0 0 1 1 4 1 10
0 0 0 0 0 0 0 0 0 0 0 0 0 0 0 0 0 0 0 0 0 0 0 2 2 2 2 1 1 5 7 1
0 2 0 0 0 0 0 0 0 0 0 0 0 0 0 0 0 0 0 0 0 0 4 5 6 7 7 10 12 11 9 6
3 2 0 0 0 0 0 0 0 0 0 0 0 0 0 0 1 0 0 0 1 3 5 7 8 8 12 9 8 5 3 3
7 6 0 0 0 0 0 0 0 0 0 0 0 1 1 1 4 6 7 5 5 8 7 11 10 10 8 17 8 12 9 4
9 4 0 0 0 0 0 0 0 0 0 0 1 2 2 3 5 8 7 8 8 8 11 12 9 5 15 16 19 20 14 28
7 1 0 0 0 0 0 0 0 0 0 1 3 3 5 6 7 7 8 9 8 6 4 9 9 12 12 17 22 18 15 21
5 1 0 0 0 0 0 1 1 2 4 4 3 5 5 6 7 8 8 10 7 2 3 3 9 11 13 9 15 15 25 22
4 1 0 0 0 0 0 1 2 3 5 6 6 6 6 6 9 6 7 8 9 6 9 6 7 13 9 14 7 8 15 16
1 2 0 0 0 0 0 0 3 4 4 6 6 6 6 6 4 7 10 9 8 9 10 12 15 19 13 13 13 14 12 7
0 1 0 0 0 0 0 0 0 0 0 1 0 0 2 4 7 9 9 8 9 10 10 11 12 16 15 12 15 15 13 17
0 1 1 0 0 0 0 0 0 0 0 0 0 0 0 1 3 6 5 4 5 7 9 12 14 10 13 12 11 13 12 15
1 2 3 0 0 0 0 0 0 0 0 0 2 3 1 3 5 8 9 8 8 6 7 7 13 9 18 13 13 14 14 13
2 1 1 0 0 0 0 0 0 0 0 2 5 5 6 6 7 9 10 10 12 11 15 16 16 10 6 6 9 15 15 16
1 1 1 0 0 0 0 0 0 1 2 4 3 5 5 5 5 8 13 17 13 10 23 19 24 24 4 7 7 18 17 22
2 3 2 3 0 0 0 0 2 3 5 5 5 4 5 6 7 9 19 35 22 20 17 21 17 18 2 2 4 13 19 22

GFSFLT1_con_sbcape_138.txt.gz
CAPE
0 0 0 0 0 0 0 0 0 0 0 0 0 0 0 0 0 0 0 0 0 0 0 0 0 0 0 0 0 19 70 59
0 0 0 0 0 0 0 0 0 0 0 0 0 0 0 0 0 0 0 0 0 0 0 0 0 0 0 0 0 0 0 45
0 0 0 0 0 0 0 0 0 0 0 0 0 0 0 0 0 0 0 0 0 0 0 0 0 0 0 0 0 0 0 0
0 0 0 0 0 0 0 0 0 0 0 0 0 0 0 0 0 0 0 0 0 0 0 0 0 0 0 0 0 0 0 0
0 0 0 0 0 0 0 0 0 0 0 0 0 0 0 0 0 0 0 0 0 0 0 0 0 0 1 1 3 1 0 1
0 0 0 0 0 0 0 0 0 0 0 0 0 0 0 0 0 0 0 0 0 0 0 0 0 3 5 2 2 2 1 0
0 0 0 0 0 0 0 0 0 0 0 0 0 0 0 0 0 0 0 0 0 0 3 6 9 7 7 9 2 10 9 8
0 0 0 0 0 0 0 0 0 0 0 0 0 0 0 0 0 0 1 4 3 4 5 9 2 7 9 9 10 7 12 12
0 0 0 0 0 0 0 0 0 0 0 0 0 0 0 0 0 3 4 5 7 6 6 9 6 9 11 8 11 9 10 14
0 0 0 0 0 0 0 0 0 0 0 0 0 0 0 1 2 3 4 4 4 8 7 3 6 7 6 9 12 13 9 11
0 0 0 0 0 0 0 0 0 0 1 1 2 2 3 3 3 4 2 5 8 8 6 4 6 2 5 8 6 10 11 8
0 0 0 0 0 0 0 0 0 1 4 3 4 2 1 0 4 5 2 6 7 7 7 8 10 9 5 3 7 9 16 16
0 0 0 0 0 0 0 0 0 0 1 2 2 2 2 2 1 4 5 4 7 7 8 5 10 8 8 6 14 12 13 18
0 0 0 0 0 0 0 0 0 0 0 0 0 0 0 0 0 2 2 0 2 5 4 4 8 6 11 5 16 11 12 17
0 0 0 0 0 0 0 0 0 0 0 0 0 0 0 0 0 1 1 1 0 0 3 2 4 1 8 7 11 11 12 11
1 0 0 0 0 0 0 0 0 0 0 0 2 1 1 2 2 3 2 3 1 2 3 3 1 2 6 5 10 14 9 7
0 0 0 0 0 0 0 0 0 0 0 0 0 2 2 0 2 0 2 2 3 0 0 4 1 7 4 9 10 16 13 11
0 0 0 0 0 0 0 0 0 0 1 2 1 0 0 0 1 1 1 1 0 0 0 0 0 0 5 6 4 0 1 0
0 0 0 0 0 0 0 0 2 2 0 0 1 0 0 0 0 2 3 3 0 0 0 0 0 0 4 4 7 0 0 0

GFSFLT1_con_sbcape_141.txt.gz
CAPE
0 0 0 0 0 0 0 0 0 0 0 0 0 0 0 0 0 0 0 0 0 0 0 0 0 0 0 0 0 0 0 0
0 0 0 0 0 0 0 0 0 0 0 0 0 0 0 0 0 0 0 0 0 0 0 0 0 0 0 0 0 0 0 0
0 0 0 0 0 0 0 0 0 0 0 0 0 0 0 0 0 0 0 0 0 0 0 0 0 0 0 0 0 0 0 0
0 0 0 0 0 0 0 0 0 0 0 0 0 0 0 0 0 0 0 0 0 0 0 0 0 0 0 0 0 0 0 0
0 0 0 0 0 0 0 0 0 0 0 0 0 0 0 0 0 0 0 0 0 0 0 0 0 0 1 0 2 2 1 0
0 0 0 0 0 0 0 0 0 0 0 0 0 0 0 0 0 0 0 0 0 0 0 0 0 1 3 5 1 2 3 8
0 0 0 0 0 0 0 0 0 0 0 0 0 0 0 0 0 0 0 0 0 0 0 1 0 2 4 7 6 4 4 7
0 0 0 0 0 0 0 0 0 0 0 0 0 0 0 0 0 0 0 0 0 0 0 0 1 4 5 4 6 9 9 11
0 0 0 0 0 0 0 0 0 0 0 0 0 0 0 0 0 0 0 0 0 0 0 0 3 3 0 3 10 4 10 15
0 0 0 0 0 0 0 0 0 0 0 0 0 0 0 0 0 0 0 0 1 0 0 0 0 0 0 0 3 12 7 13
0 0 0 0 0 0 0 0 0 0 0 0 0 0 0 0 0 0 0 0 0 0 0 1 0 0 0 0 7 4 5 9
0 0 0 0 0 0 0 0 0 0 0 0 0 0 0 0 2 3 0 0 0 0 0 1 0 0 0 0 7 1 3 4
0 0 0 0 0 0 0 0 0 0 0 0 0 0 0 0 0 0 0 0 0 0 0 0 0 0 0 0 8 1 2 7
0 0 0 0 0 0 0 0 0 0 0 0 0 0 0 0 0 0 0 0 0 0 0 0 0 0 0 0 12 4 2 7
0 0 0 0 0 0 0 0 0 0 0 0 0 0 0 0 0 0 0 0 0 0 0 0 0 0 0 0 4 1 1 5
0 0 0 0 0 0 0 0 0 0 0 0 0 0 0 0 0 0 0 0 0 0 1 0 0 0 1 0 1 1 1 2
0 0 0 0 0 0 0 0 0 0 0 0 0 0 0 0 0 0 0 0 0 0 0 0 0 3 4 3 0 1 2 1
0 0 0 0 0 0 0 0 0 0 0 0 0 0 0 0 0 0 0 0 0 0 0 0 0 0 5 7 8 0 0 0
0 0 0 0 0 0 0 0 0 0 0 0 0 0 0 0 0 0 0 0 0 0 0 0 0 0 4 2 2 0 0 0